Regional Weather Roundup
Issued by NWS Wakefield, VA

Home | Current Version | Previous Version | Graphics & Text | Print | Product List | Glossary On
Versions: 1 2 3 4 5 6 7 8 9 10 11 12 13 14 15 16 17 18 19 20 21 22 23 24 25 26 27 28 29 30 31 32 33 34 35 36 37 38 39 40 41 42 43 44 45 46 47 48 49 50
000
ASUS41 KAKQ 050815
RWRAKQ

REGIONAL WEATHER ROUNDUP
NATIONAL WEATHER SERVICE WAKEFIELD VA
300 AM EST MON DEC 05 2016

Note: "fair" indicates few or no clouds below 12,000 feet with no
significant weather and/or obstructions to visibility. * = Denotes
station may not report precipitation (e.g., rain,snow,etc.),
thunder or fog.

VAZ042-051-052>054-056-050900-
NORTHERN VIRGINIA

CITY           SKY/WX    TMP DP  RH WIND       PRES   REMARKS
WASH NATIONAL  LGT RAIN  41  39  93 S14       30.05F FOG
DULLES         LGT RAIN  38  37  97 S8        30.01F
FORT BELVOIR   LGT RAIN  40  38  93 SE6       30.04F
QUANTICO       LGT RAIN  41  38  89 S13       30.06F
FREDERICKSBRG* DRIZZLE   40  40 100 S5        30.05F
STAFFORD*      DRIZZLE   38  38 100 SE6       30.08F
WARRENTON      CLOUDY    40  36  86 S3        30.02F
CULPEPER*      CLOUDY    40  39  99 CALM      30.03S
MANASSAS*      CLOUDY    39  39 100 S7        30.03S
LEESBURG*      LGT RAIN  39  39 100 MISG      30.01F
WINCHESTER     CLOUDY    36  34  93 S5        29.96F
FRONT ROYAL*   CLOUDY    37  37 100 CALM      29.95F
LURAY*         FAIR      39  39 100 SW10      29.96S
$$

VAZ048-049-060>072-079>083-050900-
CENTRAL AND SOUTH CENTRAL VIRGINIA

CITY           SKY/WX    TMP DP  RH WIND       PRES   REMARKS
RICHMOND       RAIN      40  39  97 S5        30.06F FOG
CHESTERFIELD*  CLOUDY    39  25  56 CALM      30.08F
PETERSBURG*    LGT RAIN  40  39  97 CALM      30.07F
HANOVER        LGT RAIN  40  38  93 S5        30.08S FOG
TAPPAHANNOCK*  RAIN      41  41 100 S3        30.07R
QUINTON*       CLOUDY    40  40 100 CALM      30.07F FOG
CHARLOTTSVILLE CLOUDY    40  37  89 S10       30.00F
GORDONSVILLE*  CLOUDY    38  38  99 SW6       30.02F
ORANGE*          N/A     39  39 100 S3        30.05S
LOUISA*        DRIZZLE   43  41  93 S6        30.01F
BUMPASS*       CLOUDY    38  38 100 S3        30.05F
FARMVILLE*     LGT RAIN  40  40 100 CALM      30.03F
CREWE*         CLOUDY    39  39 100 CALM      30.06S
FORT PICKETT*  CLOUDY    39  36  88 CALM      30.05F
CHASE CITY*    CLOUDY    40  38  94 CALM      30.05S
CLARKSVILLE*   CLOUDY    41  41 100 N3        30.04F
SOUTH HILL*    CLOUDY    40  40 100 N3        30.09F
LAWRENCEVILLE* CLOUDY    41  40  97 NW3       30.05S
EMPORIA*       RAIN      41  41 100 NW6       30.06F
$$

VAZ088>098-050900-
SOUTHEAST VIRGINIA

CITY           SKY/WX    TMP DP  RH WIND       PRES   REMARKS
NORFOLK        RAIN      45  44  97 CALM      30.03F FOG
VIRGINIA BEACH LGT RAIN  45  43  93 SE5       30.02F FOG
NORFOLK NAVAL  LGT RAIN  45  44  97 CALM      30.05F FOG
WEST POINT*    CLOUDY    42  42  97 S5        30.08F
SALUDA*        CLOUDY    42  42 100 CALM      30.06S
NEWPORT NEWS   RAIN      44  43  96 CALM      30.05S FOG
LANGLEY AFB    RAIN      45  44  97 CALM      30.04F FOG
FORT EUSTIS    LGT RAIN  44  42  92 CALM      30.03F FOG
WILLIAMSBURG*  CLOUDY    45  45 100 CALM      30.07F
HR EXEC AP*    CLOUDY    45  41  87 CALM      30.01F
FRANKLIN*      LGT RAIN  43  41  95 CALM      30.04F
US460-WAKEFLD  LGT RAIN  42  41  96 NW3       30.05F FOG
$$

VAZ020-022-025-037-045-050900-
WEST CENTRAL AND SOUTHWEST VIRGINIA

CITY           SKY/WX    TMP DP  RH WIND       PRES   REMARKS
STAUNTON*      CLOUDY    37  36  96 S5        29.98F
WAYNESBORO*    CLOUDY    37  37  97 N3        29.96F
HOT SPRINGS VA NOT AVBL
LYNCHBURG      CLOUDY    38  37  97 CALM      30.03F
DANVILLE       LGT RAIN  40  40 100 CALM      30.03F FOG
SOUTH BOSTON*  CLOUDY    40  39  95 CALM      30.06F
MARTINSVILLE   LGT RAIN  39  38  97 CALM      30.03F
ROANOKE        CLOUDY    38  37  97 CALM      30.03S
BLACKSBURG     CLOUDY    37  37 100 CALM      30.01S
DUBLIN*        CLOUDY    38  38 100 CALM      30.00S FOG
MARION*        CLOUDY    40  39  96 W8        30.02R FOG
HILLSVILLE*    CLOUDY    40  40 100 CALM      29.97R
RICHLANDS*     DRIZZLE   43  43 100 SW8       29.98S
WISE*          CLOUDY    43  43 100 SW6       30.00S FOG
ABINGDON*      DRIZZLE   46  46 100 W6        30.01S
$$

MDZ021>025-VAZ099-100-050900-
SOUTHERN MARYLAND AND THE DELMARVA PENINSULA

CITY           SKY/WX    TMP DP  RH WIND       PRES   REMARKS
PATUXENT RIVER RAIN      42  39  89 SW6       30.06R FOG
BAY BRIDGE APT LGT RAIN  41  41 100 S8        30.05S FOG
LEONARDTOWN    CLOUDY    41  37  87 SW3       30.07R
DOVER          LGT RAIN  39  39 100 S5        30.04F
GEORGETOWN     LGT RAIN  40  39  97 S5        30.05F FOG
EASTON         RAIN      40  38  92 S6        30.08F
CAMBRIDGE      NOT AVBL
SALISBURY      LGT RAIN  40  40 100 CALM      30.04F FOG
OCEAN CITY     LGT RAIN  44  41  89 SE6       30.05F
WALLOPS ISLAND RAIN      44  42  93 S10       30.05F
ACCOMACK*      RAIN      44  42  95 SE6       30.04F
$$

NCZ012>017-030>032-050900-
NORTH CENTRAL AND EASTERN NORTH CAROLINA

CITY           SKY/WX    TMP DP  RH WIND       PRES   REMARKS
ROANOKE RAPIDS LGT RAIN  43  43 100 N6        30.03F
RALEIGH        RAIN      43  41  93 CALM      30.03F FOG
ELIZABETH CITY LGT RAIN  46  45  96 E5        30.01F
AHOSKIE*       HVY RAIN  42  42  98 CALM      30.02F
EDENTON*       LGT RAIN  49  47  92 CALM      30.02F
CURRITUCK*     LGT RAIN  46  46 100 CALM      30.02F
KILL DEVIL HLS DRIZZLE   50  50 100 E5        30.01F
MANTEO         LGT RAIN  50  49  99 E7        30.02F
CAPE HATTERAS  RAIN      63  61  93 S15G23    29.99F FOG
TARBORO*       NOT AVBL
GOLDSBORO      LGT RAIN  46  46 100 N3        29.96F FOG
WASHINGTON     LGT RAIN  46  45  97 E6        30.01F
GREENVILLE     LGT RAIN  45  45 100 CALM      30.03S
NEW BERN       LGT RAIN  49  48  97 CALM      29.99F
WILMINGTON     LGT RAIN  59  59 100 S6        29.95F
$$

VAZ048-050900-
ELSEWHERE

CITY           SKY/WX    TMP DP  RH WIND       PRES   REMARKS
HARRISBURG PA  LGTSLEET  35  35 100 E5        30.00S
BALTIMORE      LGT RAIN  39  39 100 S5        30.03F FOG
ANNAPOLIS      LGT RAIN  41  38  89 S6        30.04S FOG
ANDREWS AFB    LGT RAIN  39  37  93 S9        30.02F
PHILADELPHIA   LGT RAIN  41  36  82 S7        30.06F
HENDERSON NC   RAIN      38  37  97 CALM      30.05R
GREENSBORO     CLOUDY    41  40  96 SE3       30.00F
ROCKY MOUNT    LGT RAIN  44  44 100 N6        30.01S FOG
$$

VAZ100-050900-
MARINE

STATION/POSITION TIME  TEMP    WIND        PRES    WAVE   SWELL
                       AIR SEA DIR/SP/G            HT/PER HT/PER
                 (UTC) (F)     (DEG/KT/KT) (MB)    (FT/S) (FT/S)
BRANDYWINE LGT   0742   42     190/ 15/ 18   N/A
CAPE MAY NJ      0742   43 48  170/  5/  7 1017.6F
LEWES DE         0742   40 49  170/  3/  4 1017.6F
OCEAN-CITY-INLET 0736   44 50  160/  9/ 12 1017.9F
WACHAPREAGUE VA  0736   45 48  150/  6/  8 1017.9F
THOMAS POINT MD  0800   41 48  230/ 12/ 13   N/A
GOOSES REEF MD   0750   42     210/ 10/ 14 1018.1F
COVE POINT MD    0736   41     240/  7/ 10 1018.2R
SOLOMONS ISLAND  0736   42 51  180/  7/  9   N/A
BISHOPS HEAD MD  0736   43 44  150/ 12/ 14 1017.6R
PINEY POINT MD   0748          230/  9/ 11   N/A
POTOMAC MD       0750   44     200/ 14/ 17 1017.0R
CAMBRIDGE MD     0736   40 47  150/  3/  7 1017.1R
LEWISETTA VA     0736   43 48  220/  7/  8 1017.5R
RAPPAHANNOCK LGT 0736          140/ 11/ 12 1018.3R
STINGRAY PT      0750   45     180/ 14/ 16 1018.0S
YORK RVR RNG VA  0736   46     160/ 14/ 17 1017.1R
YORKTOWN VA      0736   44 52  240/  3/  4 1017.8R
JAMESTOWN VA     0750   43     230/  2/  4   N/A
DOMINION TERM VA 0736   45     130/  7/  8 1017.4F
KIPTOPEKE VA     0736      51  130/  8/ 11   N/A
CHES BAY BRIDGE  0736   46 54  160/ 10/ 14 1017.1F
CAPE HENRY VA    0736   46     140/ 11/ 15   N/A
WILLOUBY STN VA  0736   45     140/  7/  8 1018.3R
S CRANEY ISL VA  0736   45     140/  6/  9 1017.0F
CAPE HENRY BUOY  0742      56                N/A     3/ 3
1ST LANDING BUOY 0750   47                 1017.5F
CAPE CHARLES BUO 0756      55                N/A     3/ 3
OFFSHORE WE BUOY 0751      56                N/A     3/ 6
64NM E OF VA BCH 0750   53 60  120/ 12/ 14 1016.8F   2/ 8   2/ 8
DUCK PIER NC     0736   50 54  110/ 14/ 15 1016.0F
44100 DUCK FRF   0735      56                N/A     3/ 7
OREGON INLET NC  0736   53 53   90/  9/ 13 1016.2F
HATTERAS NC      0736   63 58  160/ 13/ 19 1015.3F
DIAMOND SHLS NC  0750   67 74  180/ 21/ 27 1015.4F   4/ 8   3/ 8
CAPE LOOKOUT NC  0800   63     210/  9/ 11 1014.9F
$$



USA.gov is the U.S. government's official web portal to all federal, state and local government web resources and services.